Probability
74 77 77 74 74 74 74 68 68 65 61 55 55 55 55 48 52 58 55 61 48 45 39 45 48 52 52 48 45 42 42 35 29 29 26 35 39 32 23 32 26 19 16
81 77 71 71 71 71 71 68 61 58 55 58 58 58 55 52 55 45 42 45 39 32 39 35 39 42 45 48 52 45 39 35 32 29 29 29 26 29 29 29 32 26 19
71 74 71 71 71 71 71 65 58 58 58 55 58 58 58 58 52 48 48 42 35 32 32 29 32 39 42 39 42 42 35 32 32 29 29 23 23 26 26 26 23 26 16
68 68 71 68 61 68 65 61 58 58 58 55 58 58 55 55 52 48 48 48 42 39 32 32 35 32 35 39 29 35 39 35 32 26 23 23 23 23 23 23 23 16 16
65 58 61 61 58 58 55 58 55 55 55 58 58 55 55 52 48 45 42 45 45 42 39 39 29 23 23 19 16 23 29 32 29 26 23 23 19 19 19 19 16 19 16
61 58 58 61 61 55 55 55 55 52 52 58 55 52 52 42 26 32 39 45 42 42 45 35 26 19 13 13 6 6 10 19 26 23 19 19 13 13 16 16 16 16 16
58 58 58 58 58 55 48 52 48 55 52 48 45 45 42 39 26 10 0 32 42 42 39 35 23 16 13 16 13 6 6 3 3 13 16 16 19 16 19 16 19 16 10
55 55 55 48 48 52 48 48 48 45 45 48 45 39 42 39 16 6 6 13 35 35 32 32 26 26 16 19 23 13 10 6 6 6 10 10 13 16 19 19 19 19 13
45 48 52 52 48 48 48 48 48 45 45 45 39 39 45 32 19 6 3 19 23 19 26 26 26 23 19 10 13 16 16 16 3 0 3 0 0 3 3 6 3 13 13
45 48 52 48 52 52 48 48 48 45 45 42 39 39 35 32 16 10 0 26 26 23 23 19 6 10 16 3 13 16 16 13 6 3 0 0 6 6 3 3 3 3 10
39 45 45 48 55 52 52 52 52 48 45 42 35 32 29 32 23 10 3 23 26 16 19 19 13 6 0 3 3 10 13 10 6 6 6 6 10 6 6 6 6 6 6
45 48 52 55 48 45 55 52 55 58 42 35 29 26 29 26 16 10 0 0 3 13 19 19 13 0 0 0 0 3 3 3 6 3 3 10 6 6 6 6 6 10 6
48 55 45 45 48 55 52 48 48 45 32 26 23 19 23 23 13 6 0 0 0 3 10 3 3 0 0 0 0 0 0 0 6 6 3 3 6 10 10 3 3 10 10
42 48 45 45 45 48 45 39 35 29 29 29 23 19 19 19 13 13 6 3 0 0 0 3 0 0 0 0 0 0 0 3 6 6 3 3 6 3 3 6 3 6 3
42 48 45 35 35 39 35 23 29 26 16 19 19 16 16 16 10 6 10 6 6 6 3 3 3 3 3 3 3 3 3 3 0 6 10 0 3 3 6 3 3 3 3
39 39 32 32 29 26 19 13 6 6 6 3 3 3 6 3 0 0 0 0 0 0 0 3 3 3 6 3 3 3 3 0 3 0 3 3 0 3 6 3 3 0 0
35 26 29 26 19 26 26 19 10 10 3 0 0 0 0 0 0 0 0 0 0 0 3 3 6 6 6 3 3 3 0 3 6 0 0 0 0 3 3 3 3 0 0
29 26 26 19 19 16 26 23 19 16 10 10 3 0 0 0 0 0 0 0 0 0 0 0 3 3 3 3 3 0 0 0 3 3 3 0 0 3 0 0 0 0 0
23 16 16 16 16 19 16 16 16 13 13 13 10 0 0 0 0 0 0 0 0 0 0 0 0 0 0 0 0 0 0 0 3 3 3 3 3 0 0 3 0 0 0
23 10 13 16 13 16 16 13 16 16 10 10 10 6 0 0 3 0 0 0 0 0 0 0 0 0 0 0 0 0 0 3 3 3 3 3 3 3 3 0 0 0 0
16 13 10 10 10 19 19 13 10 10 6 3 3 0 0 3 3 0 0 0 0 0 0 0 3 0 0 0 0 0 0 0 0 0 3 3 0 0 0 0 0 0 0
10 10 16 10 10 16 13 3 6 6 3 6 6 0 0 0 0 0 0 3 3 3 3 3 0 3 0 0 0 0 0 0 0 0 3 3 0 0 0 0 0 0 0
10 10 6 6 6 0 0 3 3 10 6 6 3 0 0 3 0 0 0 0 3 3 3 3 3 0 0 3 0 0 0 0 0 0 0 3 3 0 0 0 0 0 0
6 6 3 6 0 0 0 0 3 3 6 6 6 3 0 0 0 0 0 3 3 3 3 3 3 0 0 0 0 0 0 0 0 0 0 0 0 3 3 3 0 0 0
3 0 0 0 0 0 0 3 0 0 3 3 3 0 0 0 0 0 3 3 3 3 3 3 0 0 0 0 0 0 0 0 0 0 0 0 3 3 0 0 0 0 0
0 0 0 0 0 0 0 0 0 0 3 3 3 0 0 3 3 3 6 6 6 6 6 3 3 3 3 0 0 0 0 0 0 0 0 0 0 3 3 0 0 0 0
Height
5895 5894 5893 5891 5890 5889 5887 5885 5883 5881 5879 5877 5875 5873 5872 5870 5869 5867 5866 5864 5863 5862 5860 5859 5858 5856 5855 5853 5852 5850 5848 5846 5845 5843 5841 5839 5836 5835 5834 5833 5832 5831 5830
5892 5891 5890 5889 5887 5886 5884 5882 5880 5878 5876 5873 5871 5869 5868 5867 5866 5864 5862 5861 5859 5858 5856 5855 5853 5852 5850 5849 5847 5846 5844 5842 5840 5838 5836 5834 5831 5829 5828 5828 5827 5826 5825
5889 5888 5887 5885 5884 5883 5881 5879 5877 5874 5872 5869 5868 5866 5865 5864 5862 5860 5858 5857 5855 5853 5852 5850 5849 5847 5846 5844 5842 5841 5839 5837 5835 5832 5831 5829 5826 5824 5823 5822 5821 5821 5820
5885 5884 5883 5882 5880 5879 5877 5875 5873 5870 5868 5866 5864 5863 5861 5860 5858 5856 5854 5852 5851 5849 5847 5846 5844 5842 5840 5838 5837 5835 5833 5831 5829 5827 5825 5823 5820 5818 5817 5816 5816 5814 5814
5881 5880 5878 5877 5876 5874 5873 5871 5869 5867 5865 5862 5860 5859 5857 5855 5854 5852 5850 5848 5846 5844 5842 5841 5839 5837 5835 5833 5831 5829 5827 5825 5823 5821 5818 5816 5814 5812 5811 5810 5809 5808 5807
5876 5875 5874 5872 5871 5870 5868 5866 5864 5862 5860 5858 5856 5854 5852 5851 5849 5847 5845 5842 5840 5839 5837 5835 5833 5831 5829 5827 5825 5823 5821 5818 5816 5813 5811 5809 5807 5805 5804 5802 5801 5801 5801
5871 5870 5869 5867 5866 5864 5863 5861 5859 5857 5855 5853 5851 5849 5847 5845 5843 5841 5839 5837 5835 5833 5831 5829 5827 5825 5823 5820 5818 5816 5813 5811 5808 5806 5803 5801 5800 5798 5796 5795 5794 5793 5792
5865 5864 5863 5862 5860 5859 5857 5855 5853 5851 5849 5846 5845 5843 5841 5839 5837 5835 5832 5830 5828 5826 5824 5822 5820 5818 5815 5813 5811 5809 5806 5804 5801 5798 5796 5794 5792 5790 5788 5787 5786 5785 5785
5859 5858 5856 5856 5855 5853 5851 5849 5847 5845 5843 5841 5839 5837 5835 5833 5830 5828 5826 5823 5822 5820 5818 5815 5813 5810 5808 5806 5803 5801 5798 5796 5793 5791 5788 5786 5784 5782 5780 5779 5778 5777 5777
5853 5852 5850 5849 5848 5846 5844 5843 5841 5839 5837 5834 5832 5830 5828 5826 5823 5821 5819 5816 5814 5812 5810 5808 5805 5803 5800 5797 5795 5792 5790 5788 5785 5783 5781 5779 5776 5774 5773 5771 5770 5770 5769
5846 5845 5844 5842 5841 5839 5837 5835 5834 5832 5830 5827 5825 5823 5820 5818 5816 5814 5811 5809 5806 5804 5802 5799 5797 5794 5791 5789 5786 5784 5781 5779 5777 5775 5773 5771 5769 5767 5765 5764 5762 5761 5761
5839 5838 5836 5834 5833 5831 5829 5828 5826 5824 5822 5820 5817 5815 5813 5810 5808 5805 5803 5800 5797 5795 5793 5790 5787 5785 5782 5779 5777 5775 5772 5770 5768 5766 5764 5762 5761 5759 5757 5756 5754 5753 5752
5831 5830 5828 5826 5825 5823 5822 5820 5818 5816 5813 5811 5809 5807 5804 5802 5799 5796 5794 5791 5788 5786 5783 5781 5778 5775 5772 5770 5767 5765 5762 5760 5758 5757 5755 5754 5752 5750 5748 5747 5746 5744 5743
5823 5822 5820 5819 5817 5815 5814 5812 5810 5808 5805 5803 5800 5797 5795 5792 5790 5787 5785 5782 5779 5776 5773 5771 5768 5765 5763 5760 5757 5755 5753 5751 5749 5747 5746 5744 5743 5741 5739 5738 5737 5736 5735
5814 5813 5812 5810 5809 5807 5805 5803 5801 5799 5796 5794 5791 5788 5786 5783 5780 5778 5774 5772 5769 5766 5763 5760 5758 5755 5753 5749 5747 5745 5743 5741 5739 5737 5736 5735 5733 5732 5730 5729 5728 5727 5726
5805 5804 5803 5802 5800 5799 5797 5795 5792 5791 5788 5785 5782 5780 5777 5774 5771 5768 5765 5762 5759 5756 5753 5750 5748 5745 5742 5740 5737 5735 5733 5731 5730 5728 5726 5725 5723 5722 5720 5719 5718 5717 5716
5796 5795 5794 5793 5791 5789 5788 5786 5784 5782 5779 5777 5774 5771 5768 5765 5763 5760 5756 5753 5750 5747 5744 5741 5738 5736 5733 5731 5728 5726 5724 5722 5720 5718 5716 5715 5713 5712 5710 5709 5708 5707 5706
5787 5787 5785 5784 5782 5781 5779 5778 5775 5773 5771 5768 5766 5763 5760 5757 5754 5751 5748 5744 5741 5739 5736 5733 5730 5727 5725 5722 5720 5718 5716 5713 5711 5708 5707 5705 5704 5702 5701 5700 5698 5697 5696
5779 5778 5776 5775 5774 5772 5771 5769 5767 5764 5761 5759 5757 5754 5751 5749 5746 5743 5739 5736 5733 5731 5728 5725 5722 5720 5717 5714 5712 5709 5707 5705 5703 5700 5698 5696 5695 5693 5692 5690 5689 5688 5686
5770 5769 5767 5766 5765 5763 5761 5759 5758 5755 5753 5750 5748 5745 5743 5740 5737 5734 5731 5728 5725 5723 5720 5717 5714 5712 5709 5706 5704 5701 5699 5696 5694 5692 5690 5688 5686 5684 5682 5680 5679 5677 5676
5760 5759 5758 5757 5755 5754 5752 5750 5748 5746 5744 5742 5739 5736 5734 5731 5728 5725 5723 5720 5717 5715 5712 5709 5707 5704 5701 5698 5696 5693 5691 5688 5686 5684 5681 5678 5676 5674 5672 5670 5668 5666 5665
5751 5750 5749 5748 5747 5745 5744 5741 5739 5737 5735 5732 5730 5728 5725 5723 5720 5717 5715 5712 5709 5706 5704 5701 5698 5696 5693 5690 5688 5685 5683 5680 5678 5675 5672 5669 5666 5663 5661 5659 5657 5656 5654
5742 5741 5740 5738 5737 5736 5734 5733 5730 5728 5726 5724 5722 5719 5716 5714 5711 5709 5706 5704 5701 5698 5695 5693 5690 5688 5685 5682 5679 5677 5674 5671 5668 5665 5662 5660 5656 5654 5651 5649 5647 5645 5643
5733 5732 5731 5730 5729 5728 5726 5724 5722 5720 5717 5715 5713 5710 5708 5705 5703 5701 5698 5696 5693 5690 5687 5685 5682 5679 5676 5673 5670 5668 5665 5662 5659 5656 5653 5650 5647 5644 5642 5639 5636 5634 5632
5725 5724 5723 5722 5720 5720 5718 5716 5714 5711 5709 5707 5705 5702 5700 5697 5695 5693 5690 5687 5684 5681 5679 5676 5673 5671 5668 5665 5661 5658 5656 5653 5649 5646 5643 5640 5637 5634 5632 5629 5627 5624 5622
5716 5715 5715 5714 5713 5711 5710 5708 5706 5704 5702 5699 5697 5694 5692 5689 5687 5684 5681 5678 5675 5673 5670 5667 5664 5662 5659 5656 5652 5649 5647 5643 5640 5637 5633 5630 5627 5625 5622 5619 5616 5614 5611
Wind_Speed
14 14 14 14 14 15 15 16 17 18 18 18 18 18 17 16 16 16 16 17 18 18 18 18 18 18 18 18 19 19 20 21 21 20 21 21 20 19 19 19 18 17 17
15 15 15 15 15 15 16 17 18 19 19 19 19 18 16 16 17 17 17 18 19 19 20 19 19 19 19 20 20 21 22 22 22 22 22 22 22 20 19 19 19 19 19
16 16 16 16 16 16 17 18 19 20 20 19 19 18 16 17 18 19 19 20 20 21 20 20 20 20 20 21 22 22 23 24 24 23 23 23 23 22 21 21 20 20 20
17 17 17 17 18 18 19 20 20 20 19 20 19 19 18 19 19 20 21 21 21 21 21 21 21 22 22 23 24 24 24 25 25 25 25 25 24 24 24 23 22 22 21
18 19 19 19 20 20 20 21 21 21 21 21 21 20 20 21 21 22 22 23 22 22 22 23 23 24 24 24 25 25 26 26 27 27 27 27 26 26 25 25 24 23 23
21 21 21 21 21 21 21 22 22 22 22 22 22 22 22 22 22 23 24 23 23 23 24 24 25 25 25 26 26 27 27 28 29 29 29 29 28 28 27 27 26 25 24
22 22 22 22 22 22 22 23 23 23 23 24 24 24 24 24 24 24 24 25 25 25 26 26 27 27 27 28 28 29 30 30 30 31 30 29 29 29 29 28 27 26 26
23 23 23 23 23 23 24 24 24 24 24 24 25 25 25 25 25 25 26 26 27 27 27 28 28 29 29 29 30 30 31 31 31 31 30 29 29 29 28 28 28 28 27
24 24 24 24 24 25 25 26 26 26 26 26 26 26 26 27 27 27 27 28 28 29 29 29 29 30 30 30 31 31 31 31 30 29 29 28 27 27 28 28 28 27 26
26 26 25 26 26 27 28 27 27 28 28 28 29 28 28 29 29 28 28 29 30 30 30 30 31 31 31 31 32 32 32 31 30 29 28 28 28 28 28 28 27 27 27
27 27 27 28 28 29 29 28 29 29 29 30 30 29 30 30 30 29 30 30 31 32 32 32 32 32 32 32 33 33 32 31 30 29 29 29 29 29 29 28 28 28 28
29 29 29 29 29 29 30 30 30 31 31 31 31 30 30 31 30 30 31 32 32 33 33 33 33 34 34 34 34 34 33 32 31 31 30 30 29 29 30 29 28 28 28
30 30 30 30 30 30 30 30 31 32 32 32 32 31 31 32 31 32 32 33 34 34 34 34 34 35 35 36 36 35 34 33 32 31 31 31 31 30 29 29 29 29 29
30 30 30 30 30 30 31 31 32 32 32 33 33 32 32 33 33 33 33 34 34 35 35 36 36 36 36 36 35 35 34 33 32 32 31 31 31 30 29 29 29 29 30
31 31 31 31 31 31 32 32 32 32 32 32 33 33 33 33 34 34 34 34 35 35 35 36 35 35 35 34 34 33 33 33 33 33 32 32 31 31 31 30 29 30 30
32 31 31 32 32 31 31 32 32 32 32 32 33 33 33 33 33 33 33 34 34 34 34 34 34 34 34 33 32 32 31 32 33 33 32 31 31 30 30 30 30 30 30
31 31 31 32 31 31 32 32 32 32 32 32 32 33 32 32 32 32 32 32 32 33 33 32 32 32 31 30 30 30 30 30 31 31 31 31 31 30 30 30 30 30 31
31 31 31 31 31 31 31 31 32 32 32 32 32 32 32 32 32 32 32 32 31 31 31 30 30 29 29 29 30 29 29 30 31 31 30 30 30 30 30 31 31 31 31
30 31 31 31 32 32 32 32 33 33 33 32 32 32 32 32 31 32 32 31 30 30 30 30 29 29 29 29 29 29 30 30 30 29 30 30 29 30 31 31 31 32 32
31 31 32 32 32 32 33 34 34 34 34 33 33 32 32 32 32 32 31 31 30 30 30 30 29 29 29 30 30 30 30 30 30 29 30 30 30 31 31 32 32 32 32
32 32 32 33 32 32 33 34 34 34 34 33 33 33 32 32 32 32 31 30 30 30 30 29 29 30 30 30 30 30 30 30 30 31 31 30 30 31 31 32 32 32 31
32 32 32 33 33 32 33 33 33 33 33 32 32 31 31 31 31 31 30 30 30 30 29 29 29 29 29 29 29 29 30 31 31 31 32 32 31 32 32 32 32 32 32
32 32 33 33 32 32 32 32 32 32 32 32 32 32 31 31 30 29 29 29 30 29 29 29 30 30 30 30 30 30 30 31 31 32 32 32 32 31 31 30 30 31 32
30 30 31 31 30 30 31 32 32 31 31 31 31 31 30 30 30 30 30 30 30 30 30 30 30 30 31 31 31 31 31 31 31 31 32 31 31 31 31 32 32 32 32
29 29 30 29 28 29 30 31 31 30 30 30 30 30 30 30 30 30 31 31 30 30 30 30 29 30 31 31 32 31 31 31 31 31 31 31 31 31 31 31 32 32 32
28 28 28 28 28 29 29 30 29 28 28 29 29 29 29 30 30 30 30 30 30 30 30 30 29 30 31 31 31 30 30 31 31 32 32 32 31 31 32 32 32 31 30
Wind_Direction
307 309 308 310 312 313 315 317 319 319 319 318 316 314 312 311 310 310 310 311 310 308 308 309 308 307 307 307 307 306 308 308 308 310 310 309 306 302 298 294 290 290 289
304 305 304 305 308 310 311 313 315 315 317 315 315 312 312 310 308 308 308 309 308 307 306 305 305 305 305 305 305 306 307 308 308 308 307 308 306 301 296 293 291 289 288
301 301 302 302 303 305 307 310 312 314 314 315 313 311 309 310 309 307 307 307 306 306 305 302 302 302 303 304 304 304 305 305 305 305 305 304 301 297 293 291 289 289 288
300 301 300 300 301 302 305 308 310 312 313 313 312 312 309 309 307 305 306 304 304 305 305 304 303 303 303 302 302 302 302 302 303 303 303 301 298 296 293 290 289 289 289
298 300 299 299 300 302 304 305 306 307 308 308 307 308 309 308 306 303 303 303 303 303 303 304 304 305 303 302 301 301 301 301 301 301 301 299 296 295 294 292 289 288 289
294 296 297 298 299 300 301 303 305 307 307 304 303 304 306 306 305 304 304 303 303 303 302 302 303 303 302 301 301 301 301 301 301 301 299 296 294 292 289 291 288 286 288
292 293 293 295 295 297 300 302 303 304 304 303 301 301 302 302 301 300 300 300 300 302 301 301 302 301 300 299 300 300 301 301 300 300 297 294 292 291 289 288 287 285 287
292 292 292 293 294 296 298 300 303 303 303 302 300 300 300 299 299 299 299 299 299 300 301 301 301 301 300 299 297 297 298 298 300 300 298 295 293 290 288 289 287 286 285
291 293 293 292 293 294 296 298 298 299 299 300 300 299 299 298 297 297 297 298 298 298 299 300 301 301 300 298 297 297 297 297 297 298 299 296 294 293 292 289 287 286 286
291 292 291 291 291 292 294 295 296 298 299 300 300 299 298 297 297 296 297 297 297 297 297 297 298 298 299 297 297 297 296 296 295 295 297 296 294 292 292 288 286 286 286
289 291 290 289 289 291 293 293 295 298 299 299 301 300 299 298 297 296 296 296 296 296 296 295 296 296 297 297 298 297 296 295 294 293 294 296 294 291 289 287 285 285 286
288 289 290 288 288 289 292 294 295 297 298 299 298 298 299 299 297 296 296 296 296 297 296 295 296 295 295 296 296 296 295 294 293 293 293 295 294 291 288 286 284 284 285
287 288 289 288 289 290 292 293 294 295 296 297 296 296 297 297 297 296 297 297 297 297 297 296 295 295 295 294 293 292 291 291 292 292 292 293 292 292 289 286 285 285 286
285 287 287 288 288 289 291 292 294 295 295 296 297 296 296 296 297 297 296 296 296 296 297 296 295 294 293 293 292 290 289 289 290 290 290 290 291 290 288 287 286 285 286
282 285 286 287 287 289 291 292 293 294 296 296 297 297 297 298 298 297 296 296 297 297 297 297 296 295 294 293 292 291 290 289 289 289 288 289 289 288 287 285 285 284 284
281 283 285 286 288 289 292 292 293 293 295 296 297 298 297 297 298 299 300 299 298 298 299 300 298 296 294 292 291 290 288 288 288 288 289 289 288 287 284 283 284 286 286
279 281 283 285 287 290 291 293 294 294 295 296 297 298 298 298 298 299 300 299 298 300 300 300 299 297 295 294 294 291 290 289 289 290 290 288 286 283 283 283 285 286 285
280 281 282 285 288 290 291 292 294 295 296 296 297 297 297 299 299 300 300 299 299 300 301 300 300 300 299 298 297 296 294 294 293 291 290 286 284 283 283 282 283 285 284
280 282 285 286 287 289 290 291 294 295 295 296 298 298 298 299 300 301 301 300 300 300 301 301 301 300 299 298 299 298 297 296 295 293 291 288 286 285 285 285 285 285 284
281 282 284 285 286 288 290 291 293 294 295 296 297 298 298 299 300 301 300 300 300 300 301 301 301 301 300 299 299 298 297 297 296 294 292 290 288 288 287 287 286 285 284
279 282 283 284 286 288 290 291 292 293 294 295 296 298 299 298 299 300 300 299 300 301 301 302 301 302 301 300 298 297 297 297 297 297 296 294 292 290 288 287 286 285 286
277 281 283 285 286 287 289 291 292 294 295 296 296 297 297 297 298 299 298 298 299 300 301 301 301 301 302 301 298 297 296 296 297 297 297 295 293 291 289 288 287 285 285
276 279 283 286 286 288 290 291 292 294 295 296 296 297 297 297 298 297 297 298 299 299 300 300 299 300 300 300 299 298 298 297 297 297 296 296 295 295 293 291 289 288 287
278 279 282 285 286 288 290 290 292 294 295 296 297 297 297 298 298 297 297 297 298 299 299 299 299 299 299 299 298 299 299 299 297 297 297 295 296 295 294 293 292 290 290
280 280 282 285 287 289 291 293 294 294 295 296 297 297 296 296 297 298 299 300 299 299 299 298 298 299 300 299 299 299 299 299 299 297 296 296 296 295 294 293 293 292 290
281 280 282 285 287 288 291 293 294 295 296 297 297 297 297 297 298 299 300 300 299 299 299 298 298 299 299 299 299 299 299 298 299 299 298 297 297 296 295 295 293 293 291